[Date Prev][Date Next][Thread Prev][Thread Next] - [Date Index][Thread Index][Author Index]

2 LIne ISS Keps 10-4



ISS
1 25544U 98067A   01277.14629881  .00068803  00000-0  79931-3 0  5506
2 25544  51.6385 260.4827 0007420 161.7748 296.3592 15.61075656164083


----
Via the sarex mailing list at AMSAT.ORG courtesy of AMSAT-NA.
To unsubscribe, send "unsubscribe sarex" to Majordomo@amsat.org



AMSAT Top AMSAT Home